Location: Unspecified
(42.3650°N, 71.1030°W)
Time: 05:07:32
(UTC+00:00)

Daily predictions for brighter satellites

Satellite Brightness Start Highest point End
(mag) Time Altitude Azimuth Time Altitude Azimuth Time Altitude Azimuth
Resurs 01 Rocket 2.7 00:00:53 10° S 00:05:06 48° W 00:09:22 10° NNW
BREEZE-M DEB (TANK) 4.2 00:03:51 10° WNW 00:05:48 19° N 00:07:39 10° NE
CZ-4 R/B 2.1 00:03:04 10° SE 00:06:24 31° ENE 00:09:44 10° N
NOSS 2-3 (E) 4.4 00:01:26 10° NNW 00:06:41 70° NE 00:13:48 10° SE
PSLV R/B 4.4 00:02:49 10° S 00:06:45 49° W 00:10:45 10° NNW
BREEZE-M DEB (TANK) 3.4 00:05:25 10° SW 00:08:26 72° SE 00:17:58 10° ENE
Helios 1A Rocket 3.1 00:07:18 10° NE 00:10:11 30° E 00:13:02 10° SSE
CSL-04 Debris 4.3 00:10:33 10° SSE 00:15:47 57° ENE 00:21:03 10° N
Lacrosse 5 rocket 3.6 00:16:37 10° WNW 00:18:48 17° NNW 00:20:59 10° NNE
BREEZE-M DEB (TANK) 3.1 00:16:57 10° WNW 00:19:25 64° SSW 00:26:00 13° ESE
CZ-4B R/B 3.7 00:17:36 10° SSE 00:21:09 56° ENE 00:24:52 10° N
NOSS 0 Rocket 4.0 00:15:45 10° S 00:21:46 54° ESE 00:27:50 10° NE
Cosmos 1703 Rocket 3.7 00:20:02 10° NNW 00:24:19 73° W 00:28:35 10° S
NOSS 2-3 (D) 4.4 00:19:31 10° NW 00:24:51 87° NE 00:32:02 10° SE
Cosmos 2084 Rocket 4.0 00:21:40 10° S 00:25:15 32° ESE 00:28:55 10° NE
Cosmos 1933 Rocket 3.7 00:26:34 10° S 00:30:56 80° W 00:35:21 10° N
NOSS 2-3 (C) 4.4 00:27:10 10° NNW 00:32:28 80° NE 00:38:58 14° SE
RESURS DK-1 3.5 00:34:30 20° ESE 00:34:56 20° ESE 00:37:51 10° ENE
Cosmos 2237 Rocket 2.5 00:30:07 10° S 00:35:26 43° ESE 00:40:47 10° NE
Cosmos 1680 Rocket 3.7 00:30:18 10° NNW 00:35:29 72° WSW 00:40:38 10° S
Cosmos 1980 3.9 00:31:24 10° S 00:36:47 48° ESE 00:42:11 10° NE
Meteor 1-31 Rocket 2.5 00:35:44 10° SSE 00:39:15 87° WSW 00:42:47 10° NNW
Cosmos 1733 Rocket 3.7 00:36:38 15° SSE 00:39:40 33° E 00:43:36 10° NNE
MetOp-B 4.4 00:36:10 15° SE 00:40:26 49° ENE 00:45:35 10° N
Cosmos 864 Rocket 4.5 00:34:20 10° S 00:40:30 63° E 00:46:39 10° NNE
Timation 2 Rocket 4.3 00:38:02 10° NNW 00:44:13 52° ENE 00:48:37 20° SE
SPOT 5 3.3 00:41:58 10° S 00:46:36 59° W 00:51:02 10° NNW
Cosmos 2322 4.4 00:41:54 10° SW 00:47:31 57° WNW 00:53:10 10° NNE
USA 234 3.5 00:43:06 10° NE 00:49:39 76° NW 00:56:11 10° WSW
ADEOS 3.7 00:46:24 19° SE 00:50:04 55° ENE 00:55:09 10° N
ERS-1 Rocket 2.9 00:46:29 16° SSE 00:50:27 66° ENE 00:55:26 10° N
Cosmos 2341 Rocket 4.0 00:50:43 10° S 00:56:57 89° E 01:03:18 10° N
Cosmos 1025 Rocket 4.5 00:53:56 10° NNE 00:57:04 20° ENE 00:57:15 19° ENE
CSL-04 Rocket 4.3 00:52:01 10° S 00:57:27 57° W 01:02:55 10° NNW
ASTEX 1 4.3 00:58:29 26° E 00:59:44 29° ENE 01:03:57 10° NNE
Geosat 3.9 00:54:49 10° NNE 00:59:50 75° ESE 01:04:49 10° SSW
DNEPR-1 R/B 3.7 00:55:51 10° SW 01:00:03 70° NW 01:04:21 10° NNE
USA 238 DEB 4.2 00:52:53 10° NNW 01:00:17 62° NE 01:05:16 25° ESE
Spot 2 Rocket 4.1 00:58:20 27° ESE 01:00:23 39° ENE 01:05:03 10° N
USA 238 4.2 00:53:04 10° NNW 01:00:27 61° NE 01:05:25 25° ESE
Cosmos 1869 Rocket 4.4 00:56:51 10° SSW 01:01:07 52° W 01:05:27 10° N
Cosmos 1809 Rocket 4.4 00:56:04 10° N 01:02:16 77° E 01:07:13 17° SSE
Meteor 2-15 4.3 00:56:14 10° S 01:02:16 77° E 01:08:22 10° N
SL-24 R/B 4.2 00:57:16 10° NNE 01:02:19 82° ESE 01:06:42 10° S
SL-8 Rocket 4.2 00:58:59 10° SSW 01:05:13 77° W 01:11:33 10° N
Meteor 2-15 Rocket 4.4 01:00:33 11° S 01:06:18 59° E 01:12:15 10° NNE
Cosmos 2369 Rocket 4.1 01:04:32 10° NNE 01:07:33 14° NE 01:09:35 12° ENE
USA 59 Rocket 1.1 01:06:17 10° N 01:09:14 25° NE 01:09:54 24° ENE
BREEZE-M DEB (TANK) 3.6 01:03:02 10° WNW 01:10:34 76° NNE 01:11:36 43° ESE
Okean-O 2.9 01:14:36 41° ESE 01:15:32 48° ENE 01:19:45 10° N
CZ-4B R/B 3.2 01:11:59 20° SSE 01:15:54 84° WSW 01:21:34 10° NNW
Cosmos 2292 Rocket 4.4 01:12:29 10° N 01:16:44 30° ENE 01:16:48 30° ENE
Cosmos 2366 rocket 4.3 01:12:46 10° SSW 01:18:53 66° W 01:25:01 10° N
Cosmos 2278 Rocket 2.3 01:15:30 10° NNW 01:21:11 77° WSW 01:24:07 30° SSE
Cosmos 1943 Rocket 2.5 01:16:09 10° NNW 01:21:44 62° WSW 01:25:07 24° S
COSMOS 2428 4.3 01:16:53 10° WSW 01:22:08 36° WNW 01:27:23 10° N
Cosmos 1727 Rocket 4.1 01:16:27 10° N 01:22:44 60° E 01:25:21 35° SE
Cosmos 1400 Rocket 2.3 01:22:39 69° SSE 01:22:59 79° E 01:26:36 10° NNE
USA 32 4.2 01:23:27 10° SSW 01:28:39 70° W 01:33:53 10° N
BREEZE-M DEB (TANK) 4.4 01:28:05 10° W 01:29:14 14° WSW 01:29:14 14° WSW
Terra 2.3 01:28:46 24° S 01:31:26 55° W 01:36:03 10° NNW
Okean O Rocket 1.4 01:30:58 59° SE 01:31:43 76° ENE 01:36:04 10° N
CZ-4B R/B 4.1 01:33:33 25° NE 01:33:33 25° NE 01:35:35 10° N
BREEZE-M DEB (TANK) 3.6 01:30:17 10° SSW 01:34:05 53° SE 01:46:32 10° NE
Meteor 2-21 4.5 01:31:29 10° N 01:37:38 79° W 01:41:00 29° S
NOSS 3-4 (A) 4.0 01:34:14 10° WSW 01:39:19 50° NW 01:44:54 10° NNE
NOSS 3-4 (C) 4.0 01:34:42 10° SW 01:39:49 51° NW 01:45:27 10° NNE
Cosmos 1346 Rocket 3.7 01:36:25 10° N 01:38:50 34° NNE 01:38:50 34° NNE
CZ-4 R/B 3.8 01:37:51 10° SW 01:40:28 18° W 01:43:05 10° NW
Cosmos 1934 Rocket 4.3 01:40:08 42° ESE 01:40:51 44° E 01:46:43 10° NNE
NOSS 2-1 (D) 4.0 01:38:17 10° NNW 01:41:14 41° NE 01:41:14 41° NE
NOSS 2-1 (E) 4.4 01:38:31 10° NNW 01:41:13 31° NE 01:41:13 31° NE
Cosmos 2242 Rocket 4.1 01:38:55 10° NNW 01:43:17 55° W 01:44:42 38° SSW
NOSS 2-1 (C) 4.2 01:42:00 10° NNW 01:44:46 37° NNE 01:44:46 37° NNE
Cosmos 1674 Rocket 3.4 01:41:35 10° N 01:45:51 78° ENE 01:45:51 78° ENE
SL-16 R/B 2.7 01:48:13 41° ENE 01:48:13 41° ENE 01:52:37 10° NE
Cosmos 1908 Rocket 4.3 01:48:36 39° NE 01:48:36 39° NE 01:51:38 10° NNE
MOS 1-B 4.3 01:47:45 42° S 01:49:48 79° WSW 01:55:37 10° NNW
Aureole 3 4.5 01:47:16 10° NNW 01:51:59 58° W 01:54:15 33° SSW
TIMED 4.5 01:50:42 10° NNW 01:54:37 75° NNW 01:54:37 75° NNW
Cosmos 2123 Rocket 4.0 01:49:21 10° N 01:55:33 59° E 01:56:25 54° ESE
Cosmos 2239 Rocket 4.5 01:55:38 32° SSW 01:58:43 80° W 02:04:58 10° N
Cosmos 1125 Rocket 4.3 01:56:40 10° SW 02:01:42 49° WNW 02:06:48 10° N
Cosmos 1378 Rocket 4.4 01:57:52 10° NNW 02:02:04 45° W 02:02:42 42° WSW
RESURS DK-1 3.9 02:09:22 15° WSW 02:12:04 32° WNW 02:15:40 10° N
Cosmos 2285 Rocket 3.8 02:17:56 72° SSE 02:18:28 78° ESE 02:24:50 10° NNE
Cosmos 1605 Rocket 4.4 02:19:55 45° ENE 02:19:55 45° ENE 02:24:49 10° NNE
Cosmos 2237 Rocket 4.0 02:14:40 10° WSW 02:19:36 30° NW 02:24:35 10° N
Cosmos 2221 Rocket 4.4 02:23:17 10° NNW 02:26:39 48° NW 02:26:39 48° NW
SeaSat 1 4.1 02:29:57 24° NE 02:29:57 24° NE 02:33:19 10° N
Ariane Rocket 3.2 02:31:46 66° NW 02:31:46 66° NW 02:36:10 10° NNW
IRS-1C Rocket 4.2 02:33:00 71° WNW 02:33:00 71° WNW 02:37:52 10° NNW
Cosmos 2297 4.2 02:31:04 10° NNW 02:36:05 52° NE 02:36:05 52° NE
Cosmos 2150 Rocket 4.5 02:39:07 57° NNW 02:39:07 57° NNW 02:43:22 10° NNE
SPOT 3 Rocket 4.2 02:43:18 48° W 02:43:18 48° W 02:48:01 10° NNW
CZ-4B R/B 4.4 02:48:26 40° WNW 02:48:26 40° WNW 02:52:12 10° NNW
Cosmos 1656 Rocket 4.3 02:43:58 10° NW 02:48:36 47° W 02:48:36 47° W
Cosmos 2369 Rocket 2.6 02:46:50 10° NNW 02:51:21 58° N 02:51:21 58° N
USA 59 Rocket 2.4 02:54:26 10° WNW 02:55:26 17° WNW 02:55:26 17° WNW
BREEZE-M DEB (TANK) 3.7 02:56:03 10° WNW 02:58:51 59° WNW 02:58:51 59° WNW
SJ 16-02 4.0 03:21:42 10° N 03:22:30 14° NNE 03:22:30 14° NNE
SL-16 R/B 3.9 03:29:57 25° W 03:31:29 28° NW 03:36:22 10° N
NOSS 3-1 (C) 4.1 03:33:03 10° NW 03:39:45 74° WNW 03:39:45 74° WNW
ATLAS 5 CENTAUR R/B 4.4 04:02:45 10° NNW 04:03:32 14° N 04:03:32 14° N
COSMOS 2455 4.0 04:08:22 10° NNW 04:11:59 39° NNW 04:11:59 39° NNW
NOSS 3-1 (A) 4.4 04:28:15 10° NW 04:33:59 59° NW 04:33:59 59° NW
CZ-2C R/B 4.2 04:50:56 33° N 04:50:56 33° N 04:53:57 10° N
Cosmos 1697 Rocket 4.3 04:44:58 10° N 04:48:37 29° NNE 04:48:37 29° NNE
Cosmos 1980 Rocket 4.1 05:03:24 10° N 05:07:50 23° NE 05:08:13 22° ENE
ATLAS 3B R/B 4.2 05:12:15 10° NNW 05:19:22 36° NE 05:24:20 18° E
Cosmos 2082 Rocket 4.1 05:36:20 21° ENE 05:36:20 21° ENE 05:39:05 10° NE
ATLAS 2AS CENTAUR R/B 3.1 05:37:33 60° NNE 05:37:33 60° NNE 05:43:02 10° NNE
ACS3 Solar Sail 2.6 05:36:21 10° NNE 05:40:46 45° NE 05:40:46 45° NE
Cosmos 1833 Rocket 4.0 05:48:33 36° N 05:48:33 36° N 05:52:06 10° NNE
CZ-4C R/B 4.1 05:59:09 17° ENE 05:59:09 17° ENE 06:00:35 10° NE
IDEFIX/ARIANE 42P 3.7 06:06:17 10° NNE 06:09:46 39° NE 06:09:46 39° NE
Cosmos 2034 Rocket 4.3 06:23:09 62° NNW 06:23:09 62° NNW 06:28:31 10° N
ADEOS Rocket 3.8 06:29:03 10° NNE 06:36:29 60° E 06:38:09 51° SE
COSMOS 2406 4.2 06:36:49 39° ESE 06:36:49 39° ESE 06:41:57 10° NE
Cosmos 2026 Rocket 4.1 06:32:10 10° N 06:37:33 66° NW 06:37:33 66° NW
Resurs 1-4 Rocket 3.6 06:36:11 10° NE 06:40:41 27° E 06:41:24 26° ESE
Cosmos 909 Rocket 3.9 06:41:55 85° NNE 06:41:55 85° NNE 06:48:03 10° NNE
Cosmos 1092 Rocket 4.0 06:38:51 10° N 06:44:20 70° NNW 06:44:20 70° NNW
Envisat 4.0 06:47:20 10° NNE 06:52:01 37° E 06:52:20 36° ESE
Cosmos 1980 Rocket 3.3 06:46:38 10° NNW 06:49:55 35° NW 06:49:55 35° NW
Cosmos 2369 3.8 06:46:39 10° NNW 06:52:21 71° ENE 06:52:38 70° E
USA 281 3.2 06:53:51 63° WNW 06:53:51 63° WNW 06:59:43 10° NNW
Cosmos-2242 4.5 06:56:34 32° N 06:56:34 32° N 06:58:56 10° N
Cosmos 2333 Rocket 3.9 06:56:49 10° N 07:01:52 32° NE 07:06:54 10° ESE
USA 267 3.3 06:56:19 10° NE 07:02:50 69° NW 07:04:02 57° W
Cosmos 44 Rocket 3.5 07:08:40 72° ENE 07:08:40 72° ENE 07:13:23 10° NE
Cosmos 2221 3.5 07:09:56 40° E 07:09:56 40° E 07:13:30 10° NNE
ATLAS 3B R/B 2.8 07:03:01 10° NW 07:10:38 64° WSW 07:11:25 60° SSW
Cosmos 1634 Rocket 4.1 07:13:31 54° WNW 07:13:31 54° WNW 07:19:31 10° N
SL-8 R/B 4.4 07:14:54 46° ESE 07:14:54 46° ESE 07:18:14 10° ESE
MSX 4.3 07:10:51 10° N 07:16:08 44° WNW 07:16:08 44° WNW
MOZ.5/SAFIR/RUBIN 5/SL-8 3.9 07:18:25 65° NNW 07:18:25 65° NNW 07:22:25 10° NNW
Cosmos 2082 Rocket 2.6 07:18:10 49° WNW 07:18:15 49° WNW 07:23:47 10° NNE
Cosmos 2360 Rocket 4.2 07:14:32 10° N 07:19:18 27° NE 07:24:02 10° ESE
USA 229 DEB 4.4 07:16:57 10° NW 07:23:11 41° W 07:23:11 41° W
USA 229 4.4 07:17:00 10° NW 07:23:25 42° W 07:23:25 42° W
ACS3 Solar Sail 3.1 07:19:36 10° NNW 07:24:17 24° WNW 07:24:19 24° WNW
ATLAS 2AS CENTAUR R/B 4.3 07:24:55 17° WNW 07:28:06 23° NNW 07:33:21 10° NNE
Meteor 2-9 Rocket 4.4 07:23:07 10° N 07:28:25 62° ENE 07:31:22 26° SSE
Cosmos 1975 3.5 07:27:13 10° N 07:30:34 47° ENE 07:30:34 47° ENE
Cosmos 724 4.4 07:29:57 54° W 07:30:54 61° NW 07:36:50 10° NNE
BREEZE-M DEB (TANK) 3.7 07:29:52 28° NNW 07:31:02 37° NNE 07:37:32 10° E
Cosmos 2322 Rocket 3.8 07:26:13 10° N 07:31:21 35° ENE 07:36:27 10° ESE
Cosmos 220 Rocket 4.1 07:31:58 63° ENE 07:31:58 63° ENE 07:35:35 10° NNE
H-2A R/B 2.6 07:27:03 10° NNE 07:32:02 52° E 07:33:58 34° SSE
DMSP B5D2-2 3.9 07:33:43 58° S 07:34:45 83° WSW 07:39:58 10° NNW
Cosmos 1486 Rocket 4.2 07:30:23 10° NNW 07:35:35 70° ENE 07:40:33 11° SSE
FENGYUN 3A 4.3 07:30:50 10° N 07:35:48 38° WNW 07:35:55 38° WNW
Iridium 4 Rocket 3.6 07:35:36 44° SE 07:36:45 60° E 07:41:25 10° N
CZ-2D R/B 2.1 07:32:12 10° NNE 07:37:28 79° ESE 07:38:53 50° S
USA 234 3.2 07:31:33 10° SE 07:38:05 83° NE 07:44:40 10° NW
SL-16 R/B 2.3 07:37:38 10° NNW 07:43:19 75° ENE 07:48:58 10° SSE
Meteor 2-6 Rocket 4.3 07:42:40 52° WSW 07:43:36 59° WNW 07:49:21 10° N
CZ-4C R/B 2.7 07:44:02 31° NW 07:44:33 32° NW 07:49:16 10° NNE
SL-19 R/B 4.4 07:41:11 10° NNE 07:46:50 77° ESE 07:49:32 34° S
Cosmos 2237 4.3 07:41:38 10° NW 07:47:10 51° WSW 07:47:33 50° WSW
Cosmos 1271 Rocket 2.8 07:49:27 60° N 07:49:27 60° N 07:52:22 10° N
Cosmos 2279 Rocket 4.4 07:48:16 39° W 07:49:11 41° WNW 07:55:04 10° N
SL-4 R/B 4.1 07:46:39 12° NW 07:49:22 23° N 07:52:27 10° ENE
IDEFIX/ARIANE 42P 4.1 07:46:40 10° NNW 07:50:23 20° WNW 07:50:27 20° WNW
Cosmos 2219 Rocket 4.2 07:47:04 10° N 07:51:59 29° NE 07:56:51 10° ESE
Cosmos 1777 Rocket 4.0 07:47:12 10° NNW 07:52:30 84° ENE 07:57:44 10° SSE
Cosmos 1238 Rocket 3.8 07:55:29 26° ESE 07:55:58 27° E 07:58:27 10° NNE
ALOS 2.1 07:52:01 10° N 07:56:33 68° WNW 07:57:24 55° SW
ADEOS II 2.0 07:53:36 10° NNE 07:58:52 90° E 08:01:12 34° SSW
Cosmos 1607 4.4 08:00:55 34° W 08:03:07 47° NW 08:09:08 10° NNE
Cosmos 540 Rocket 3.5 08:01:46 33° S 08:04:08 77° ESE 08:09:17 10° NNE
JB-3 4.0 08:06:19 36° SSE 08:07:42 87° E 08:11:20 10° NNW
H-2A R/B 3.0 08:09:48 33° WNW 08:09:48 33° WNW 08:12:18 10° NNW
Cosmos 1470 4.0 08:09:39 10° NNW 08:11:10 22° NW 08:11:10 22° NW
Cosmos 1766 Rocket 4.5 08:08:34 10° N 08:12:48 49° ENE 08:16:59 10° SSE
Cosmos 1655 Rocket 4.1 08:07:18 10° N 08:13:35 77° E 08:19:47 10° SSE
ARGOS 3.6 08:11:25 10° NNE 08:16:46 61° E 08:22:03 10° S
Resurs 1-4 Rocket 2.7 08:15:35 10° N 08:20:30 39° WNW 08:22:26 29° WSW
COSMOS 2406 4.1 08:18:50 26° W 08:20:58 33° NW 08:26:10 10° N
ADEOS Rocket 4.4 08:15:08 10° N 08:21:29 32° WNW 08:25:05 22° WSW
Cosmos 2266 Rocket 4.2 08:17:00 10° NNW 08:22:46 44° W 08:26:22 21° SSW
SL-16 R/B 2.8 08:21:59 10° SSE 08:28:12 72° ENE 08:34:27 10° N
Envisat 4.1 08:26:32 10° N 08:30:47 27° WNW 08:32:27 23° W
NOSS 3-3 (A) 4.4 08:28:44 24° W 08:31:26 41° NW 08:37:11 10° NNE
Aureole 1 Rocket 4.0 08:28:10 10° N 08:32:06 52° ENE 08:37:01 10° SE
METEOR-M 4.2 08:29:15 10° N 08:34:30 62° WNW 08:38:24 18° SSW
Meteor 1-11 Rocket 4.1 08:39:05 10° NNW 08:44:40 45° W 08:50:07 10° SSW
NOSS 3-3 (C) 4.5 08:41:51 20° WSW 08:45:07 39° NW 08:50:54 10° NNE
H-2A R/B 1.8 08:41:47 10° NNE 08:45:50 85° WNW 08:49:43 11° SSW
Cosmos 2333 Rocket 2.6 08:40:58 10° NW 08:46:13 40° WSW 08:51:27 10° S
Cosmos 2221 4.1 08:46:15 15° W 08:46:49 16° WNW 08:49:24 10° NNW
AQUA 3.8 08:43:35 10° N 08:48:13 67° WNW 08:52:42 11° SSW
ISS -1.3 08:49:31 10° S 08:51:48 17° SE 08:54:05 10° E
CZ-2C R/B 3.0 08:48:13 10° NNE 08:53:05 59° E 08:57:46 10° S
Cosmos 1354 Rocket 4.2 08:52:16 10° NNW 08:57:21 49° WSW 09:02:21 10° S
Cosmos 990 Rocket 4.2 08:54:03 10° NNW 08:58:57 46° WSW 09:03:50 10° S
Cosmos 1898 Rocket 4.2 08:55:47 10° NNW 09:00:53 58° ENE 09:05:57 10° SSE
Okean 3 Rocket 4.2 08:56:59 10° N 09:01:23 62° E 09:05:47 10° SSE
Cosmos 1842 Rocket 3.4 08:57:12 10° SSW 09:01:28 69° W 09:05:46 10° N
Cosmos 1763 Rocket 4.5 08:59:23 15° WSW 09:02:52 30° WNW 09:07:30 10° N
Cosmos 2360 Rocket 2.4 08:58:05 10° NW 09:03:31 49° WSW 09:08:56 10° S
Cosmos 841 Rocket 3.7 08:59:44 10° S 09:04:49 73° ESE 09:09:59 10° NNE
USA 290 3.3 09:04:50 16° WSW 09:06:39 28° WNW 09:09:27 10° N
SL-08 RB Rocket 3.6 09:02:52 10° N 09:07:16 69° WNW 09:11:39 10° SSW
UNK 4.4 09:04:06 10° SSE 09:08:36 59° ENE 09:13:08 10° N
H-2A R/B 3.5 09:07:15 10° NNW 09:10:57 21° WNW 09:14:28 11° WSW
NOSS 3-4 (A) 4.1 09:04:08 10° NW 09:11:03 81° NE 09:19:11 10° SE
NOSS 3-4 (C) 4.1 09:04:39 10° NW 09:11:35 80° NE 09:19:44 10° SE
Cosmos 1937 Rocket 4.4 09:08:10 10° NNW 09:13:17 54° ENE 09:18:19 10° SE
Cosmos 1758 4.2 09:10:07 10° N 09:13:41 49° E 09:17:12 10° SSE
SL-14 R/B 3.3 09:10:49 10° S 09:14:41 84° E 09:18:35 10° N
Cosmos 2322 Rocket 2.7 09:10:15 10° NW 09:15:20 36° WSW 09:20:24 10° S
Alouette 2 Rocket 4.1 09:12:45 10° NNW 09:16:23 29° W 09:19:32 10° SSW
CZ-2D R/B 3.9 09:13:55 10° NNW 09:16:46 15° WNW 09:19:37 10° W
BREEZE-M DEB (TANK) 2.7 09:13:39 10° WNW 09:21:10 79° NNE 09:23:56 10° ESE
USA 234 4.1 09:16:08 10° S 09:21:32 27° SW 09:26:57 10° WNW
CZ-3 R/B 3.5 09:03:14 10° WSW 09:23:12 39° SSW 09:30:04 10° SE
In-Cosmos 22 4.1 09:18:28 10° S 09:23:43 89° E 09:29:04 10° N
Cosmos 1151 Rocket 3.2 09:21:08 10° S 09:25:19 76° E 09:29:33 10° N
Cosmos 1553 Rocket 4.2 09:19:28 10° SSW 09:25:26 54° WNW 09:31:34 10° N
SL-16 R/B 3.7 09:23:30 10° WNW 09:26:40 15° W 09:29:50 10° SW
SL-4 R/B 2.3 09:23:33 10° NW 09:27:21 60° NNE 09:31:00 10° ESE
Cosmos 1805 Rocket 3.9 09:24:50 10° N 09:29:15 73° E 09:33:36 10° SSE
Cosmos 1939 Rocket 2.6 09:28:40 10° NNE 09:32:18 89° W 09:35:56 10° SSW
Gbstr 26 Del rocket 2.9 09:28:47 10° NW 09:32:30 72° NNE 09:36:28 10° ESE
CZ-4C R/B 4.4 09:33:24 10° NNW 09:34:48 11° NNW 09:36:15 10° N
Cosmos 2219 Rocket 2.5 09:30:43 10° NW 09:36:01 43° WSW 09:41:19 10° S
Cosmos 1709 Rocket 4.3 09:31:58 10° N 09:38:05 73° E 09:44:10 10° SSE
